| time (UTC) | temp F | wind direction | speed MPH | gust MPH | rain 1hr in | rain 24hr in | rain mn in | humidity % | barometer mb |
| 20260507020053 | 40 | 0 | 0.0 | 0.0 | 0.00 | 0.00 | 0.00 | 55 | 1014.0 |
| 20260507014554 | 41 | 0 | 0.0 | 0.0 | 0.00 | 0.00 | 0.00 | 54 | 1013.9 |
| 20260507013043 | 42 | 319 | 0.0 | 4.0 | 0.00 | 0.00 | 0.00 | 53 | 1013.9 |
| 20260507011549 | 42 | 313 | 1.0 | 6.0 | 0.00 | 0.00 | 0.00 | 52 | 1013.9 |
| 20260507010045 | 43 | 318 | 2.0 | 8.0 | 0.00 | 0.00 | 0.00 | 51 | 1014.0 |
| 20260507004542 | 43 | 319 | 2.0 | 12.0 | 0.00 | 0.00 | 0.00 | 50 | 1014.1 |
| 20260507003043 | 44 | 342 | 4.0 | 14.0 | 0.00 | 0.00 | 0.00 | 50 | 1013.9 |
| 20260507001541 | 44 | 313 | 2.0 | 11.0 | 0.00 | 0.00 | 0.00 | 49 | 1014.0 |
| 20260507000040 | 44 | 315 | 3.0 | 14.0 | 0.00 | 0.00 | 0.00 | 49 | 1014.0 |
| 20260506234554 | 44 | 340 | 3.0 | 10.0 | 0.00 | 0.00 | 0.00 | 48 | 1014.1 |
| 20260506233048 | 44 | 304 | 2.0 | 8.0 | 0.00 | 0.00 | 0.00 | 49 | 1014.1 |
| 20260506231552 | 45 | 304 | 3.0 | 10.0 | 0.00 | 0.00 | 0.00 | 48 | 1014.2 |
| 20260506230043 | 45 | 316 | 2.0 | 9.0 | 0.00 | 0.00 | 0.00 | 49 | 1014.2 |
| 20260506224549 | 45 | 319 | 8.0 | 13.0 | 0.00 | 0.00 | 0.00 | 48 | 1014.2 |
| 20260506223050 | 45 | 306 | 4.0 | 16.0 | 0.00 | 0.00 | 0.00 | 49 | 1014.2 |
| 20260506221549 | 45 | 327 | 5.0 | 11.0 | 0.00 | 0.00 | 0.00 | 48 | 1014.2 |
| 20260506220052 | 45 | 318 | 3.0 | 11.0 | 0.00 | 0.00 | 0.00 | 50 | 1014.4 |
| 20260506214546 | 44 | 330 | 3.0 | 14.0 | 0.00 | 0.00 | 0.00 | 50 | 1014.5 |
| 20260506213043 | 43 | 329 | 5.0 | 11.0 | 0.00 | 0.00 | 0.00 | 51 | 1014.6 |
| 20260506211547 | 44 | 340 | 3.0 | 11.0 | 0.00 | 0.00 | 0.00 | 51 | 1014.7 |
| 20260506210050 | 44 | 328 | 3.0 | 12.0 | 0.00 | 0.00 | 0.00 | 52 | 1014.9 |
| 20260506204548 | 43 | 323 | 3.0 | 10.0 | 0.00 | 0.00 | 0.00 | 52 | 1015.0 |
| 20260506203044 | 43 | 339 | 2.0 | 11.0 | 0.00 | 0.00 | 0.00 | 52 | 1015.0 |
| 20260506201544 | 43 | 278 | 1.0 | 12.0 | 0.00 | 0.00 | 0.00 | 53 | 1015.1 |
| 20260506200042 | 42 | 322 | 2.0 | 8.0 | 0.00 | 0.00 | 0.00 | 52 | 1015.2 |
| 20260506194543 | 42 | 342 | 5.0 | 9.0 | 0.00 | 0.00 | 0.00 | 52 | 1015.2 |
| 20260506193044 | 42 | 323 | 2.0 | 12.0 | 0.00 | 0.00 | 0.00 | 53 | 1015.3 |
| 20260506191543 | 42 | 342 | 5.0 | 14.0 | 0.00 | 0.00 | 0.00 | 53 | 1015.3 |
| 20260506190043 | 41 | 317 | 3.0 | 10.0 | 0.00 | 0.00 | 0.00 | 53 | 1015.4 |
| 20260506184546 | 41 | 276 | 3.0 | 11.0 | 0.00 | 0.00 | 0.00 | 54 | 1015.5 |
| 20260506183047 | 41 | 308 | 2.0 | 10.0 | 0.00 | 0.00 | 0.00 | 55 | 1015.5 |
| 20260506181543 | 40 | 317 | 5.0 | 13.0 | 0.00 | 0.00 | 0.00 | 54 | 1015.5 |
| 20260506180046 | 39 | 258 | 2.0 | 17.0 | 0.00 | 0.00 | 0.00 | 56 | 1015.6 |
| 20260506174541 | 39 | 311 | 4.0 | 13.0 | 0.00 | 0.00 | 0.00 | 56 | 1015.7 |
| 20260506173104 | 40 | 5 | 3.0 | 11.0 | 0.00 | 0.00 | 0.00 | 56 | 1015.7 |
| 20260506171544 | 39 | 309 | 3.0 | 9.0 | 0.00 | 0.00 | 0.00 | 56 | 1015.7 |
| 20260506170047 | 39 | 321 | 4.0 | 8.0 | 0.00 | 0.00 | 0.00 | 57 | 1015.9 |
| 20260506164555 | 39 | 319 | 4.0 | 11.0 | 0.00 | 0.00 | 0.00 | 56 | 1015.9 |
| 20260506163047 | 39 | 235 | 2.0 | 10.0 | 0.00 | 0.00 | 0.00 | 57 | 1015.9 |
| 20260506161542 | 39 | 286 | 3.0 | 8.0 | 0.00 | 0.00 | 0.00 | 57 | 1015.9 |
| 20260506160047 | 38 | 326 | 4.0 | 9.0 | 0.00 | 0.00 | 0.00 | 58 | 1016.0 |
| 20260506154549 | 38 | 321 | 3.0 | 9.0 | 0.00 | 0.00 | 0.00 | 59 | 1015.9 |
| 20260506153047 | 37 | 269 | 2.0 | 9.0 | 0.00 | 0.00 | 0.00 | 59 | 1015.8 |
| 20260506151542 | 37 | 321 | 2.0 | 9.0 | 0.00 | 0.00 | 0.00 | 59 | 1015.8 |
| 20260506150044 | 37 | 209 | 3.0 | 9.0 | 0.00 | 0.00 | 0.00 | 58 | 1015.8 |
| 20260506144546 | 37 | 326 | 3.0 | 8.0 | 0.00 | 0.00 | 0.00 | 58 | 1015.7 |
| 20260506143044 | 37 | 322 | 3.0 | 9.0 | 0.00 | 0.00 | 0.00 | 59 | 1015.6 |
| 20260506141543 | 36 | 323 | 4.0 | 9.0 | 0.00 | 0.00 | 0.00 | 61 | 1015.7 |
| 20260506140042 | 36 | 309 | 3.0 | 9.0 | 0.00 | 0.00 | 0.00 | 63 | 1015.7 |
| 20260506134542 | 36 | 310 | 2.0 | 8.0 | 0.00 | 0.00 | 0.00 | 65 | 1015.6 |
| 20260506133047 | 36 | 331 | 1.0 | 9.0 | 0.00 | 0.00 | 0.00 | 66 | 1015.4 |
| 20260506131558 | 36 | 327 | 2.0 | 7.0 | 0.00 | 0.00 | 0.00 | 67 | 1015.2 |
| 20260506130103 | 36 | 318 | 1.0 | 5.0 | 0.00 | 0.00 | 0.00 | 69 | 1015.2 |
| 20260506124551 | 35 | 221 | 2.0 | 8.0 | 0.00 | 0.00 | 0.00 | 70 | 1015.0 |
| 20260506123043 | 34 | 326 | 0.0 | 3.0 | 0.00 | 0.00 | 0.00 | 74 | 1014.6 |
| 20260506121545 | 33 | 347 | 0.0 | 2.0 | 0.00 | 0.00 | 0.00 | 76 | 1014.4 |
| 20260506120049 | 32 | 0 | 0.0 | 2.0 | 0.00 | 0.00 | 0.00 | 78 | 1014.4 |
| 20260506114542 | 31 | 0 | 0.0 | 0.0 | 0.00 | 0.00 | 0.00 | 78 | 1014.0 |
| 20260506113051 | 31 | 0 | 0.0 | 0.0 | 0.00 | 0.00 | 0.00 | 78 | 1013.6 |
| 20260506111545 | 30 | 0 | 0.0 | 3.0 | 0.00 | 0.00 | 0.00 | 79 | 1013.7 |
| 20260506110055 | 29 | 0 | 0.0 | 2.0 | 0.00 | 0.00 | 0.00 | 79 | 1013.9 |
| 20260506104551 | 29 | 304 | 0.0 | 2.0 | 0.00 | 0.00 | 0.00 | 79 | 1013.9 |
| 20260506103050 | 29 | 0 | 0.0 | 3.0 | 0.00 | 0.00 | 0.00 | 79 | 1013.9 |
| 20260506101553 | 29 | 0 | 0.0 | 1.0 | 0.00 | 0.00 | 0.00 | 78 | 1013.6 |
| 20260506100100 | 29 | 0 | 0.0 | 2.0 | 0.00 | 0.00 | 0.00 | 77 | 1013.6 |
| 20260506094538 | 29 | 0 | 0.0 | 2.0 | 0.00 | 0.00 | 0.00 | 76 | 1013.4 |
| 20260506093046 | 30 | 0 | 0.0 | 1.0 | 0.00 | 0.00 | 0.00 | 75 | 1013.3 |
| 20260506091542 | 31 | 0 | 0.0 | 2.0 | 0.00 | 0.00 | 0.00 | 73 | 1013.2 |
| 20260506090045 | 31 | 0 | 0.0 | 3.0 | 0.00 | 0.00 | 0.00 | 73 | 1013.3 |
| 20260506084607 | 31 | 289 | 1.0 | 3.0 | 0.00 | 0.00 | 0.00 | 73 | 1013.1 |
| 20260506083046 | 31 | 0 | 0.0 | 0.0 | 0.00 | 0.00 | 0.00 | 72 | 1013.1 |
| 20260506081550 | 32 | 0 | 0.0 | 0.0 | 0.00 | 0.00 | 0.00 | 71 | 1013.1 |
| 20260506073046 | 34 | 322 | 1.0 | 3.0 | 0.00 | 0.00 | 0.00 | 68 | 1012.8 |
| 20260506071551 | 34 | 331 | 1.0 | 5.0 | 0.00 | 0.00 | 0.00 | 68 | 1012.7 |
| 20260506061541 | 35 | 306 | 0.0 | 2.0 | 0.00 | 0.00 | 0.00 | 65 | 1012.6 |
| 20260506044637 | 38 | 321 | 2.0 | 6.0 | 0.00 | 0.00 | 0.00 | 58 | 1012.0 |
| 20260506043046 | 39 | 0 | 1.0 | 5.0 | 0.00 | 0.00 | 0.00 | 57 | 1011.9 |
| 20260506041556 | 39 | 310 | 2.0 | 7.0 | 0.00 | 0.00 | 0.00 | 56 | 1011.8 |
| 20260506040051 | 40 | 274 | 2.0 | 11.0 | 0.00 | 0.00 | 0.00 | 55 | 1011.8 |
| 20260506034616 | 41 | 302 | 2.0 | 8.0 | 0.00 | 0.00 | 0.00 | 53 | 1011.8 |
| 20260506033045 | 41 | 329 | 3.0 | 8.0 | 0.00 | 0.00 | 0.00 | 52 | 1011.8 |
| 20260506031553 | 42 | 311 | 2.0 | 6.0 | 0.00 | 0.00 | 0.00 | 51 | 1011.9 |
| 20260506030049 | 42 | 331 | 2.0 | 9.0 | 0.00 | 0.00 | 0.00 | 50 | 1011.8 |
| 20260506024554 | 43 | 329 | 2.0 | 11.0 | 0.00 | 0.00 | 0.00 | 49 | 1011.6 |
| 20260506023100 | 43 | 318 | 3.0 | 9.0 | 0.00 | 0.00 | 0.00 | 49 | 1011.3 |
| 20260506021547 | 44 | 308 | 5.0 | 11.0 | 0.00 | 0.00 | 0.00 | 48 | 1011.0 |